HVDC transfer

From www.emi.ea.govt.nz provided by the Electricity Authority (New Zealand)
Run at: 20240506085043

Parameters
Date range,22 Jan 2020 - 22 Jan 2020
Time scale,Trading period
Show,Average flow (MW)

Period start,Period end,Trading period,Direction,Energy transfer (GWh),Peak flow (MW),Average flow (MW)
22/01/2020 00:00:00,22/01/2020 00:30:00,1,Northward at Haywards,0.042,83,83
22/01/2020 00:30:00,22/01/2020 01:00:00,2,Northward at Haywards,0.015,30,30
22/01/2020 01:00:00,22/01/2020 01:30:00,3,Northward at Haywards,0.007,13,13
22/01/2020 01:30:00,22/01/2020 02:00:00,4,Southward at Benmore,-0.013,-27,-27
22/01/2020 02:00:00,22/01/2020 02:30:00,5,Southward at Benmore,-0.015,-30,-30
22/01/2020 02:30:00,22/01/2020 03:00:00,6,Southward at Benmore,-0.019,-38,-38
22/01/2020 03:00:00,22/01/2020 03:30:00,7,Southward at Benmore,-0.017,-35,-35
22/01/2020 03:30:00,22/01/2020 04:00:00,8,Southward at Benmore,-0.013,-27,-27
22/01/2020 04:00:00,22/01/2020 04:30:00,9,Southward at Benmore,-0.015,-30,-30
22/01/2020 04:30:00,22/01/2020 05:00:00,10,Northward at Haywards,0.008,16,16
22/01/2020 06:30:00,22/01/2020 07:00:00,14,Northward at Haywards,0.062,123,123
22/01/2020 07:00:00,22/01/2020 07:30:00,15,Northward at Haywards,0.083,165,165
22/01/2020 07:30:00,22/01/2020 08:00:00,16,Northward at Haywards,0.109,217,217
22/01/2020 08:00:00,22/01/2020 08:30:00,17,Northward at Haywards,0.106,212,212
22/01/2020 08:30:00,22/01/2020 09:00:00,18,Northward at Haywards,0.105,210,210
22/01/2020 09:00:00,22/01/2020 09:30:00,19,Northward at Haywards,0.139,278,278
22/01/2020 09:30:00,22/01/2020 10:00:00,20,Northward at Haywards,0.132,263,263
22/01/2020 10:00:00,22/01/2020 10:30:00,21,Northward at Haywards,0.134,268,268
22/01/2020 10:30:00,22/01/2020 11:00:00,22,Northward at Haywards,0.139,277,277
22/01/2020 11:00:00,22/01/2020 11:30:00,23,Northward at Haywards,0.124,248,248
22/01/2020 11:30:00,22/01/2020 12:00:00,24,Northward at Haywards,0.112,223,223
22/01/2020 12:00:00,22/01/2020 12:30:00,25,Northward at Haywards,0.115,229,229
22/01/2020 12:30:00,22/01/2020 13:00:00,26,Northward at Haywards,0.120,239,239
22/01/2020 13:00:00,22/01/2020 13:30:00,27,Northward at Haywards,0.127,254,254
22/01/2020 13:30:00,22/01/2020 14:00:00,28,Northward at Haywards,0.120,239,239
22/01/2020 14:00:00,22/01/2020 14:30:00,29,Northward at Haywards,0.115,230,230
22/01/2020 14:30:00,22/01/2020 15:00:00,30,Northward at Haywards,0.102,204,204
22/01/2020 15:00:00,22/01/2020 15:30:00,31,Northward at Haywards,0.102,203,203
22/01/2020 15:30:00,22/01/2020 16:00:00,32,Northward at Haywards,0.105,210,210
22/01/2020 16:00:00,22/01/2020 16:30:00,33,Northward at Haywards,0.107,214,214
22/01/2020 16:30:00,22/01/2020 17:00:00,34,Northward at Haywards,0.102,203,203
22/01/2020 17:00:00,22/01/2020 17:30:00,35,Northward at Haywards,0.093,186,186
22/01/2020 17:30:00,22/01/2020 18:00:00,36,Northward at Haywards,0.090,179,179
22/01/2020 18:00:00,22/01/2020 18:30:00,37,Northward at Haywards,0.074,148,148
22/01/2020 18:30:00,22/01/2020 19:00:00,38,Northward at Haywards,0.087,173,173
22/01/2020 19:00:00,22/01/2020 19:30:00,39,Northward at Haywards,0.083,165,165
22/01/2020 19:30:00,22/01/2020 20:00:00,40,Northward at Haywards,0.076,151,151
22/01/2020 20:00:00,22/01/2020 20:30:00,41,Northward at Haywards,0.072,143,143
22/01/2020 20:30:00,22/01/2020 21:00:00,42,Northward at Haywards,0.070,139,139
22/01/2020 21:00:00,22/01/2020 21:30:00,43,Northward at Haywards,0.056,112,112
22/01/2020 21:30:00,22/01/2020 22:00:00,44,Northward at Haywards,0.050,99,99
22/01/2020 22:00:00,22/01/2020 22:30:00,45,Northward at Haywards,0.026,51,51
22/01/2020 22:30:00,22/01/2020 23:00:00,46,Southward at Benmore,-0.014,-29,-29
22/01/2020 23:00:00,22/01/2020 23:30:00,47,Southward at Benmore,-0.027,-55,-55
22/01/2020 23:30:00,23/01/2020 00:00:00,48,Southward at Benmore,-0.042,-84,-84
